Wind_Speed
19 19 19 19 18 18 17 17 17 17 16 16 16 15 15 15 16 16 16 16 16 15 15 15 15 15 16 16 16 17 17 18 19 19 19 20 20 21 21 21 21 21 21
20 20 19 19 19 18 18 18 17 17 17 16 16 16 16 16 16 16 16 16 15 14 14 15 15 16 17 17 18 18 19 19 20 20 20 21 22 22 22 22 22 23 23
20 19 19 18 18 18 18 18 18 17 17 17 17 17 16 16 16 17 17 17 16 15 16 16 16 16 17 17 17 18 20 20 21 21 21 21 22 23 22 22 23 24 24
20 19 19 18 18 18 18 19 19 18 18 18 18 17 17 17 17 17 17 17 17 16 16 17 18 18 18 17 17 17 18 20 21 22 22 22 23 23 23 24 24 25 25
20 20 19 19 18 18 18 18 18 19 19 19 18 18 18 18 18 18 18 19 19 18 17 18 19 18 18 18 18 17 17 18 20 21 22 23 23 24 24 24 25 26 26
20 20 20 20 20 19 19 19 19 19 19 19 19 18 18 18 18 18 19 19 20 19 19 19 20 20 19 18 17 17 18 18 19 20 21 23 24 24 25 26 27 26 27
21 22 22 21 20 20 20 20 20 20 19 19 19 19 19 19 20 20 20 20 20 21 21 21 21 21 20 19 18 19 19 19 20 21 22 23 24 25 26 26 26 27 28
21 21 21 21 21 21 21 21 21 20 20 20 20 20 20 20 20 21 21 21 21 21 22 21 21 21 20 20 20 21 21 21 22 22 23 23 24 25 26 27 28 29 29
21 21 21 20 21 21 21 21 21 21 22 22 22 21 21 21 22 22 22 23 22 22 22 22 22 21 21 21 22 22 23 24 24 24 25 25 25 26 27 29 29 28 29
22 21 21 21 21 21 21 21 21 22 23 23 22 23 23 23 23 23 23 23 23 23 23 23 23 22 22 23 23 24 25 26 26 26 27 27 27 28 28 29 29 29 29
22 21 21 21 22 22 21 21 21 22 23 23 23 23 23 23 24 24 24 23 23 24 25 25 24 24 25 24 25 25 26 27 27 28 27 27 28 29 29 29 29 29 29
22 22 22 22 22 22 22 21 22 23 23 24 24 23 24 24 25 24 24 23 24 24 25 25 25 25 26 26 26 26 27 27 27 27 27 27 28 28 28 28 29 29 30
21 22 23 23 22 22 22 22 22 23 24 24 24 24 24 24 24 24 24 24 25 25 26 26 26 26 26 27 27 27 27 27 27 27 27 27 27 28 28 28 29 29 29
21 22 22 22 22 22 22 22 23 23 24 23 23 23 23 23 24 24 25 25 25 25 26 26 26 26 26 26 27 26 26 27 27 26 26 26 27 27 27 28 29 29 30
21 21 22 22 22 22 22 22 23 24 24 23 24 24 24 24 25 25 25 25 25 25 26 26 26 26 25 25 26 26 27 26 25 24 24 25 26 26 27 27 28 29 30
23 22 22 21 22 22 23 23 23 24 24 25 24 24 24 25 26 26 25 26 25 25 26 26 25 24 25 25 25 25 26 25 24 24 25 26 26 26 27 28 28 29 30
23 23 23 22 22 22 23 23 23 23 24 24 24 25 25 26 26 26 26 26 26 26 27 27 26 25 25 25 24 24 24 24 24 25 25 25 26 26 27 27 28 28 29
23 23 22 22 22 23 23 23 23 23 23 23 24 24 25 26 27 27 26 27 27 27 27 27 25 24 24 24 24 25 25 25 25 26 26 26 26 26 27 27 27 28 28
23 24 23 22 22 23 23 23 23 23 23 23 23 24 25 25 26 26 26 26 26 26 26 25 24 24 24 24 25 25 25 25 25 24 25 25 26 27 27 27 27 28 28
23 23 22 22 22 23 23 23 23 23 23 23 24 24 25 26 26 25 25 24 24 24 25 25 25 25 25 26 26 26 26 25 24 24 24 25 25 26 26 27 27 27 27
24 22 22 23 23 23 23 23 23 22 23 23 24 25 26 26 26 26 25 25 25 26 26 26 26 26 27 27 27 26 25 24 24 24 25 25 26 27 27 27 27 27 27
23 22 22 23 22 23 23 23 23 23 24 24 25 26 26 26 26 26 26 26 26 27 27 27 28 28 28 27 27 25 24 24 24 25 26 26 26 26 27 27 27 27 27
24 23 23 22 22 22 23 23 23 24 25 26 26 27 26 26 26 26 26 26 27 27 27 27 27 27 27 26 25 25 25 25 25 26 26 26 26 26 26 27 27 28 28
23 23 23 23 23 24 24 25 25 25 25 26 26 26 27 26 26 26 27 27 26 26 27 27 26 26 26 25 26 25 25 26 26 26 26 26 26 26 26 27 27 28 28
25 24 24 24 25 25 25 25 25 25 25 25 25 26 26 26 26 26 26 25 25 26 27 26 25 25 24 24 24 25 26 26 26 26 26 26 26 27 27 27 28 28 28
25 25 25 25 25 24 25 25 25 25 25 25 25 24 25 25 25 25 24 24 24 25 25 25 25 25 24 24 25 25 26 26 26 26 26 27 27 28 28 29 29 28 29
Wind_Direction
277 275 276 279 278 276 276 278 279 280 281 281 282 281 278 279 280 279 279 281 279 278 277 276 277 274 272 269 264 264 264 263 263 264 264 262 260 261 260 258 258 260 260
277 278 277 279 276 274 276 280 281 279 280 280 279 277 275 276 277 276 276 280 279 276 276 274 278 277 276 272 267 264 264 264 262 262 262 263 261 260 259 257 259 260 260
276 276 277 280 278 274 275 278 278 276 276 278 279 279 276 275 275 275 277 280 280 277 278 276 280 281 278 278 273 267 264 263 263 262 263 263 262 261 262 261 261 261 261
274 276 277 278 278 276 275 276 275 274 275 276 276 277 274 273 275 274 276 279 282 280 279 282 284 284 283 279 275 275 270 265 262 262 263 262 262 263 264 265 264 262 261
275 277 278 277 277 277 276 278 277 278 276 273 274 274 274 271 273 274 277 280 281 281 281 285 286 284 282 279 278 277 273 267 264 263 263 263 262 263 264 264 266 263 261
276 278 277 276 277 277 277 278 278 276 275 273 272 274 276 274 272 274 274 277 280 280 281 283 284 282 280 278 275 275 274 273 271 268 266 265 263 263 264 266 267 265 263
278 279 277 276 276 274 274 275 275 273 272 273 274 275 276 274 271 274 274 277 278 279 280 280 281 280 279 278 275 275 276 276 273 272 270 265 264 264 265 266 267 266 265
279 280 277 275 275 274 273 273 271 271 272 272 273 274 276 275 273 273 274 277 276 277 277 278 279 278 277 278 277 276 275 275 274 274 273 269 268 268 267 268 268 267 264
280 279 276 275 275 275 273 273 272 272 273 273 272 273 274 275 273 271 272 274 274 276 278 278 277 276 275 276 278 277 275 275 275 275 273 272 271 272 271 269 268 268 266
279 278 276 274 272 273 273 273 271 272 274 273 274 276 272 272 271 270 270 273 274 276 278 280 278 276 277 278 278 278 277 277 277 276 276 274 273 273 273 272 269 269 268
277 277 275 273 273 272 273 274 274 272 272 272 273 274 270 271 270 270 269 271 273 275 276 278 279 280 280 280 280 279 280 280 279 276 274 273 272 273 272 272 270 270 269
275 275 274 273 273 273 273 275 276 276 273 273 274 274 272 272 272 273 271 272 274 275 276 279 280 280 282 283 283 283 282 281 280 277 274 273 272 272 273 271 270 270 270
276 276 275 273 273 274 274 276 278 277 275 274 275 274 272 271 271 273 274 275 276 276 279 280 283 283 283 283 283 284 284 282 280 277 275 274 274 274 273 271 270 270 270
278 276 276 276 275 275 276 277 278 278 277 276 277 274 272 273 272 272 275 278 278 277 280 281 282 283 283 284 283 284 285 283 280 278 277 277 276 274 272 272 270 269 269
278 277 277 277 275 274 277 278 278 278 277 277 277 275 274 276 273 274 278 280 279 278 279 280 281 281 281 282 283 284 284 284 282 281 279 278 277 276 274 274 272 271 270
278 278 278 277 275 275 276 277 277 277 277 277 276 275 275 276 275 277 277 278 279 279 281 281 282 280 282 284 284 285 285 284 284 282 280 278 277 277 275 275 274 272 271
278 279 279 278 276 276 278 278 278 277 275 274 275 276 275 276 276 275 277 277 279 280 281 282 282 281 283 284 285 287 287 285 283 282 280 278 278 278 277 276 276 274 272
278 278 278 277 276 275 275 276 278 276 275 275 277 278 277 277 278 277 277 278 280 281 281 280 278 279 282 284 287 287 285 284 281 281 280 279 279 278 277 277 278 276 273
277 278 279 276 277 277 275 275 275 275 275 277 279 281 281 281 281 280 278 279 280 281 281 280 278 279 282 285 287 285 285 284 281 280 280 279 279 279 279 278 278 277 273
274 275 275 275 276 277 276 275 273 274 275 276 279 281 281 281 281 279 278 278 280 283 284 282 281 281 283 287 287 285 285 285 284 283 282 282 280 280 280 279 278 276 274
272 273 273 274 275 276 277 277 276 274 275 277 278 280 282 281 280 278 279 279 282 285 286 285 283 282 284 286 286 285 285 285 285 284 284 284 283 281 280 279 278 276 275
271 271 273 274 274 275 276 277 277 276 277 279 282 283 283 282 281 281 281 281 283 284 286 286 284 283 283 283 284 285 285 285 285 285 285 284 284 283 281 278 277 276 276
270 271 272 274 274 276 277 279 279 280 281 283 285 286 285 284 283 282 281 281 283 284 285 286 285 285 283 283 284 284 283 284 286 286 286 285 284 284 282 279 277 277 277
269 270 270 271 274 277 279 281 281 283 285 287 287 287 286 285 283 282 281 281 281 282 284 284 284 284 285 285 284 284 283 284 284 286 286 287 286 285 284 283 282 280 278
266 267 269 271 274 277 279 281 283 283 285 288 288 287 285 283 283 284 283 282 281 281 283 284 284 284 283 285 285 284 284 285 285 286 287 287 286 285 286 286 285 283 281
267 269 270 272 275 277 279 281 284 285 286 290 291 290 287 286 284 284 285 283 284 287 288 287 286 284 283 283 285 285 283 284 285 287 288 287 287 287 287 287 286 284 282
Height
5858 5857 5856 5855 5855 5854 5853 5853 5852 5851 5851 5850 5849 5848 5847 5846 5846 5845 5845 5844 5844 5843 5843 5842 5842 5841 5841 5840 5840 5839 5840 5840 5840 5840 5840 5841 5841 5842 5842 5843 5843 5844 5844
5853 5853 5852 5851 5850 5849 5849 5848 5848 5847 5846 5846 5844 5843 5842 5842 5841 5841 5840 5840 5839 5839 5839 5838 5837 5837 5836 5835 5835 5834 5834 5835 5835 5835 5835 5836 5837 5837 5837 5837 5838 5839 5839
5849 5848 5847 5847 5846 5845 5845 5844 5844 5843 5842 5841 5840 5839 5838 5838 5838 5837 5836 5836 5835 5834 5835 5834 5833 5832 5831 5830 5829 5829 5829 5829 5829 5829 5830 5830 5831 5831 5831 5831 5832 5833 5833
5844 5844 5843 5843 5842 5841 5840 5840 5839 5838 5838 5837 5836 5835 5834 5833 5833 5832 5832 5831 5831 5830 5830 5830 5829 5828 5826 5825 5824 5824 5823 5823 5823 5824 5824 5824 5825 5825 5825 5826 5826 5826 5826
5840 5839 5839 5838 5837 5836 5836 5835 5834 5834 5833 5832 5832 5831 5830 5829 5828 5828 5828 5827 5826 5826 5825 5825 5824 5823 5822 5820 5820 5819 5818 5817 5817 5817 5817 5818 5818 5819 5819 5819 5819 5820 5820
5835 5834 5834 5833 5832 5832 5831 5830 5829 5829 5828 5827 5827 5826 5825 5825 5824 5823 5822 5822 5821 5821 5820 5820 5819 5818 5817 5815 5814 5814 5813 5813 5812 5812 5812 5812 5812 5813 5813 5813 5813 5813 5813
5830 5829 5828 5828 5827 5827 5826 5825 5824 5823 5823 5822 5822 5821 5820 5820 5819 5818 5817 5817 5816 5816 5815 5814 5813 5812 5811 5810 5809 5808 5808 5807 5807 5806 5806 5806 5806 5806 5806 5806 5806 5806 5806
5824 5823 5822 5822 5821 5821 5820 5819 5819 5818 5817 5817 5817 5816 5815 5814 5814 5813 5813 5812 5811 5810 5809 5809 5808 5807 5806 5804 5804 5803 5802 5801 5801 5800 5800 5799 5799 5799 5799 5799 5799 5799 5799
5818 5818 5817 5816 5816 5815 5814 5814 5813 5812 5812 5811 5811 5810 5810 5809 5808 5808 5807 5806 5806 5805 5804 5803 5802 5801 5800 5799 5798 5797 5796 5795 5794 5794 5793 5793 5792 5792 5791 5791 5791 5791 5791
5812 5812 5811 5810 5810 5809 5809 5808 5807 5807 5806 5805 5804 5804 5804 5803 5802 5802 5801 5800 5799 5799 5798 5797 5795 5794 5793 5792 5791 5790 5789 5788 5786 5786 5785 5785 5785 5784 5783 5783 5782 5782 5782
5807 5806 5805 5804 5804 5803 5803 5802 5801 5800 5799 5799 5798 5797 5797 5797 5796 5795 5794 5794 5793 5792 5791 5790 5789 5788 5786 5785 5784 5782 5781 5779 5778 5777 5777 5776 5776 5776 5775 5774 5774 5774 5774
5801 5800 5799 5799 5798 5797 5797 5796 5795 5793 5793 5792 5791 5791 5790 5789 5789 5788 5788 5787 5786 5785 5784 5783 5781 5780 5779 5778 5776 5775 5773 5771 5770 5768 5768 5768 5767 5767 5766 5766 5765 5765 5765
5795 5794 5793 5792 5792 5791 5790 5789 5788 5787 5786 5785 5784 5784 5783 5783 5782 5781 5781 5780 5779 5778 5777 5775 5774 5773 5771 5770 5768 5767 5765 5763 5761 5760 5759 5758 5758 5758 5757 5757 5756 5756 5756
5789 5788 5787 5786 5785 5784 5783 5782 5781 5780 5779 5778 5778 5777 5776 5775 5775 5774 5774 5773 5772 5771 5769 5768 5767 5765 5763 5762 5760 5758 5756 5755 5753 5752 5750 5750 5749 5749 5749 5748 5747 5747 5747
5782 5782 5781 5780 5779 5778 5777 5776 5774 5773 5772 5772 5771 5770 5769 5769 5768 5768 5767 5766 5764 5763 5762 5761 5759 5757 5756 5754 5752 5751 5749 5747 5745 5744 5743 5742 5741 5741 5740 5740 5739 5739 5738
5776 5775 5774 5773 5772 5771 5770 5769 5768 5767 5765 5765 5764 5763 5763 5762 5761 5760 5759 5758 5757 5756 5755 5753 5752 5750 5749 5747 5745 5744 5742 5740 5738 5736 5735 5734 5733 5733 5732 5731 5730 5730 5730
5769 5768 5767 5766 5765 5764 5763 5762 5761 5760 5759 5758 5757 5757 5756 5755 5754 5753 5752 5751 5750 5749 5747 5746 5744 5743 5741 5740 5738 5736 5734 5733 5731 5729 5728 5726 5725 5724 5724 5723 5722 5721 5720
5762 5761 5760 5759 5758 5757 5756 5755 5754 5753 5752 5751 5751 5750 5748 5748 5747 5745 5744 5743 5742 5741 5739 5738 5737 5736 5734 5733 5731 5729 5727 5725 5723 5722 5720 5718 5717 5716 5715 5714 5713 5712 5711
5755 5754 5753 5752 5751 5750 5749 5748 5747 5747 5746 5745 5744 5743 5741 5740 5739 5737 5736 5735 5734 5732 5731 5730 5729 5728 5727 5725 5723 5721 5719 5717 5715 5713 5712 5710 5709 5708 5707 5706 5704 5703 5702
5747 5746 5745 5744 5744 5743 5742 5741 5741 5740 5739 5738 5737 5736 5734 5733 5731 5730 5729 5728 5726 5725 5724 5723 5722 5720 5719 5717 5715 5713 5711 5709 5707 5706 5704 5703 5701 5700 5698 5697 5696 5694 5694
5739 5738 5738 5737 5737 5736 5735 5735 5734 5733 5732 5731 5729 5728 5727 5725 5723 5722 5721 5720 5719 5718 5716 5715 5714 5712 5711 5709 5707 5705 5703 5702 5700 5698 5696 5695 5693 5692 5690 5688 5687 5686 5685
5732 5731 5731 5730 5730 5729 5728 5728 5727 5726 5724 5723 5722 5720 5719 5717 5715 5714 5713 5712 5711 5710 5708 5707 5705 5704 5702 5701 5699 5697 5696 5694 5692 5690 5688 5687 5685 5683 5682 5680 5679 5678 5677
5724 5724 5724 5723 5723 5722 5721 5721 5720 5718 5717 5715 5714 5712 5710 5709 5708 5706 5705 5704 5703 5701 5700 5698 5697 5695 5694 5692 5691 5689 5688 5686 5684 5682 5681 5679 5677 5675 5673 5672 5671 5669 5668
5717 5717 5717 5716 5716 5715 5714 5713 5712 5711 5709 5707 5705 5703 5702 5700 5699 5698 5697 5695 5694 5693 5691 5690 5688 5687 5686 5684 5683 5681 5680 5678 5676 5674 5673 5671 5669 5667 5665 5664 5662 5661 5659
5709 5709 5709 5709 5709 5708 5707 5706 5704 5703 5701 5699 5697 5695 5693 5692 5691 5690 5688 5687 5686 5684 5683 5681 5680 5679 5678 5676 5675 5673 5672 5670 5668 5666 5665 5663 5661 5659 5657 5655 5653 5652 5651
5702 5702 5702 5702 5701 5701 5700 5698 5697 5695 5694 5692 5690 5688 5686 5684 5683 5681 5680 5679 5678 5676 5675 5674 5672 5671 5670 5668 5667 5666 5664 5662 5660 5658 5657 5654 5652 5650 5648 5646 5645 5643 5642